| time (UTC) | temp F | wind direction | speed MPH | gust MPH | rain 1hr in | rain 24hr in | rain mn in | humidity % | barometer mb |
| 20260505125012 | 57 | 44 | 0.0 | 0.0 | 0.00 | 0.00 | 0.00 | 83 | 1010.1 |
| 20260505124512 | 57 | 54 | 0.0 | 0.0 | 0.00 | 0.00 | 0.00 | 83 | 1010.0 |
| 20260505124011 | 57 | 73 | 0.0 | 0.0 | 0.00 | 0.00 | 0.00 | 84 | 1010.0 |
| 20260505123511 | 56 | 98 | 0.0 | 0.0 | 0.00 | 0.00 | 0.00 | 84 | 1009.9 |
| 20260505123011 | 56 | 328 | 0.0 | 0.0 | 0.00 | 0.00 | 0.00 | 84 | 1009.9 |
| 20260505122511 | 56 | 352 | 0.0 | 0.0 | 0.00 | 0.00 | 0.00 | 85 | 1010.0 |
| 20260505122011 | 55 | 40 | 0.0 | 0.0 | 0.00 | 0.00 | 0.00 | 85 | 1010.1 |
| 20260505121510 | 55 | 75 | 0.0 | 0.0 | 0.00 | 0.00 | 0.00 | 86 | 1010.0 |
| 20260505121010 | 55 | 290 | 0.0 | 0.0 | 0.00 | 0.00 | 0.00 | 86 | 1009.8 |
| 20260505120611 | 54 | 248 | 0.0 | 0.0 | 0.00 | 0.00 | 0.00 | 86 | 1009.7 |
| 20260505120026 | 54 | 6 | 0.0 | 0.0 | 0.00 | 0.00 | 0.00 | 87 | 1009.7 |
| 20260505115522 | 54 | 49 | 0.0 | 0.0 | 0.00 | 0.00 | 0.00 | 87 | 1009.7 |
| 20260505115026 | 54 | 109 | 0.0 | 0.0 | 0.00 | 0.00 | 0.00 | 87 | 1009.7 |
| 20260505114522 | 54 | 39 | 0.0 | 0.0 | 0.00 | 0.00 | 0.00 | 87 | 1009.6 |
| 20260505114025 | 53 | 70 | 0.0 | 0.0 | 0.00 | 0.00 | 0.00 | 87 | 1009.6 |
| 20260505113526 | 53 | 124 | 0.0 | 0.0 | 0.00 | 0.00 | 0.00 | 87 | 1009.8 |
| 20260505113024 | 53 | 82 | 0.0 | 0.0 | 0.00 | 0.00 | 0.00 | 88 | 1009.8 |
| 20260505112522 | 53 | 297 | 0.0 | 0.0 | 0.00 | 0.00 | 0.00 | 88 | 1009.8 |
| 20260505112022 | 53 | 82 | 0.0 | 0.0 | 0.00 | 0.00 | 0.00 | 89 | 1009.7 |
| 20260505111521 | 52 | 267 | 0.0 | 0.0 | 0.00 | 0.00 | 0.00 | 89 | 1009.7 |
| 20260505111021 | 52 | 89 | 0.0 | 0.0 | 0.00 | 0.00 | 0.00 | 89 | 1009.5 |
| 20260505110621 | 52 | 160 | 0.0 | 0.0 | 0.00 | 0.00 | 0.00 | 89 | 1009.6 |
| 20260505102057 | 0 | 0.0 | 0.0 | 0.00 | 0.00 | 0.00 | 1009.3 | ||
| 20260505101556 | 0 | 0.0 | 0.0 | 0.00 | 0.00 | 0.00 | 1009.3 | ||
| 20260505101054 | 0 | 0.0 | 0.0 | 0.00 | 0.00 | 0.00 | 1009.3 | ||
| 20260505100553 | 0 | 0.0 | 0.0 | 0.00 | 0.00 | 0.00 | 1009.3 | ||
| 20260505100054 | 0 | 0.0 | 0.0 | 0.00 | 0.00 | 0.00 | 1009.3 | ||
| 20260505095551 | 0 | 0.0 | 0.0 | 0.00 | 0.00 | 0.00 | 1009.2 | ||
| 20260505095049 | 0 | 0.0 | 0.0 | 0.00 | 0.00 | 0.00 | 1009.1 | ||
| 20260505094548 | 0 | 0.0 | 0.0 | 0.00 | 0.00 | 0.00 | 1009.1 | ||
| 20260505094046 | 0 | 0.0 | 0.0 | 0.00 | 0.00 | 0.00 | 1009.1 | ||
| 20260505093544 | 0 | 0.0 | 0.0 | 0.00 | 0.00 | 0.00 | 1009.3 | ||
| 20260505093043 | 0 | 0.0 | 0.0 | 0.00 | 0.00 | 0.00 | 1009.3 | ||
| 20260505092542 | 0 | 0.0 | 0.0 | 0.00 | 0.00 | 0.00 | 1009.3 | ||
| 20260505092042 | 49 | 71 | 0.0 | 0.0 | 0.00 | 0.00 | 0.00 | 92 | 1009.3 |
| 20260505091548 | 49 | 71 | 0.0 | 0.0 | 0.00 | 0.00 | 0.00 | 92 | 1009.4 |
| 20260505091039 | 49 | 71 | 0.0 | 0.0 | 0.00 | 0.00 | 0.00 | 92 | 1009.4 |
| 20260505090540 | 50 | 63 | 0.0 | 0.0 | 0.00 | 0.00 | 0.00 | 93 | 1009.5 |
| 20260505090044 | 50 | 30 | 0.0 | 0.0 | 0.00 | 0.00 | 0.00 | 93 | 1009.5 |
| 20260505085545 | 50 | 356 | 0.0 | 0.0 | 0.00 | 0.00 | 0.00 | 93 | 1009.5 |
| 20260505085041 | 50 | 348 | 0.0 | 0.0 | 0.00 | 0.00 | 0.00 | 93 | 1009.5 |
| 20260505084541 | 50 | 93 | 0.0 | 0.0 | 0.00 | 0.00 | 0.00 | 93 | 1009.5 |
| 20260505084040 | 50 | 75 | 0.0 | 0.0 | 0.00 | 0.00 | 0.00 | 92 | 1009.6 |
| 20260505083540 | 50 | 101 | 0.0 | 0.0 | 0.00 | 0.00 | 0.00 | 92 | 1009.6 |
| 20260505083041 | 50 | 101 | 0.0 | 0.0 | 0.00 | 0.00 | 0.00 | 92 | 1009.5 |
| 20260505082540 | 50 | 84 | 0.0 | 0.0 | 0.00 | 0.00 | 0.00 | 92 | 1009.5 |
| 20260505082040 | 50 | 84 | 0.0 | 0.0 | 0.00 | 0.00 | 0.00 | 92 | 1009.5 |
| 20260505081545 | 50 | 351 | 0.0 | 0.0 | 0.00 | 0.00 | 0.00 | 92 | 1009.5 |
| 20260505081040 | 50 | 46 | 0.0 | 0.0 | 0.00 | 0.00 | 0.00 | 92 | 1009.4 |
| 20260505080543 | 50 | 60 | 0.0 | 0.0 | 0.00 | 0.00 | 0.00 | 92 | 1009.6 |
| 20260505080039 | 50 | 65 | 0.0 | 0.0 | 0.00 | 0.00 | 0.00 | 92 | 1009.6 |
| 20260505075539 | 50 | 65 | 0.0 | 0.0 | 0.00 | 0.00 | 0.00 | 92 | 1009.6 |
| 20260505075038 | 50 | 105 | 0.0 | 0.0 | 0.00 | 0.00 | 0.00 | 92 | 1009.5 |
| 20260505074538 | 50 | 354 | 0.0 | 0.0 | 0.00 | 0.00 | 0.00 | 92 | 1009.5 |
| 20260505074139 | 50 | 357 | 0.0 | 0.0 | 0.00 | 0.00 | 0.00 | 92 | 1009.5 |
| 20260505073538 | 50 | 352 | 0.0 | 0.0 | 0.00 | 0.00 | 0.00 | 91 | 1009.6 |
| 20260505073038 | 50 | 342 | 0.0 | 0.0 | 0.00 | 0.00 | 0.00 | 91 | 1009.6 |
| 20260505072537 | 50 | 346 | 0.0 | 0.0 | 0.00 | 0.00 | 0.00 | 91 | 1009.6 |
| 20260505072037 | 50 | 43 | 0.0 | 0.0 | 0.00 | 0.00 | 0.00 | 91 | 1009.6 |
| 20260505071550 | 50 | 25 | 0.0 | 0.0 | 0.00 | 0.00 | 0.00 | 91 | 1009.6 |
| 20260505071037 | 50 | 58 | 0.0 | 0.0 | 0.00 | 0.00 | 0.00 | 91 | 1009.7 |
| 20260505070538 | 50 | 149 | 0.0 | 0.0 | 0.00 | 0.00 | 0.00 | 91 | 1009.6 |
| 20260505070042 | 50 | 64 | 0.0 | 0.0 | 0.00 | 0.00 | 0.00 | 91 | 1009.7 |
| 20260505065536 | 50 | 23 | 0.0 | 0.0 | 0.00 | 0.00 | 0.00 | 91 | 1009.6 |
| 20260505065037 | 50 | 101 | 0.0 | 0.0 | 0.00 | 0.00 | 0.00 | 91 | 1009.7 |
| 20260505064536 | 50 | 90 | 0.0 | 0.0 | 0.00 | 0.00 | 0.00 | 92 | 1009.7 |
| 20260505064039 | 50 | 95 | 0.0 | 0.0 | 0.00 | 0.00 | 0.00 | 92 | 1009.7 |
| 20260505063536 | 50 | 213 | 0.0 | 0.0 | 0.00 | 0.00 | 0.00 | 92 | 1009.8 |
| 20260505063047 | 50 | 23 | 0.0 | 0.0 | 0.00 | 0.00 | 0.00 | 92 | 1009.7 |
| 20260505062536 | 50 | 178 | 0.0 | 0.0 | 0.00 | 0.00 | 0.00 | 92 | 1009.7 |
| 20260505062036 | 50 | 270 | 0.0 | 0.0 | 0.00 | 0.00 | 0.00 | 92 | 1009.8 |
| 20260505061604 | 50 | 348 | 0.0 | 0.0 | 0.00 | 0.00 | 0.00 | 92 | 1009.7 |
| 20260505061035 | 50 | 27 | 0.0 | 0.0 | 0.00 | 0.00 | 0.00 | 92 | 1009.7 |
| 20260505060536 | 50 | 242 | 0.0 | 0.0 | 0.00 | 0.00 | 0.00 | 92 | 1009.9 |
| 20260505060036 | 50 | 319 | 0.0 | 0.0 | 0.00 | 0.00 | 0.00 | 92 | 1009.8 |
| 20260505055536 | 50 | 336 | 0.0 | 0.0 | 0.00 | 0.00 | 0.00 | 91 | 1009.8 |
| 20260505055037 | 50 | 64 | 0.0 | 0.0 | 0.00 | 0.00 | 0.00 | 91 | 1009.9 |
| 20260505054536 | 49 | 85 | 0.0 | 0.0 | 0.00 | 0.00 | 0.00 | 91 | 1009.9 |
| 20260505054035 | 49 | 87 | 0.0 | 0.0 | 0.00 | 0.00 | 0.00 | 91 | 1009.9 |
| 20260505053537 | 49 | 349 | 0.0 | 0.0 | 0.00 | 0.00 | 0.00 | 91 | 1009.9 |
| 20260505053041 | 49 | 31 | 0.0 | 0.0 | 0.00 | 0.00 | 0.00 | 91 | 1010.0 |
| 20260505052535 | 49 | 25 | 0.0 | 0.0 | 0.00 | 0.00 | 0.00 | 91 | 1009.9 |
| 20260505052035 | 49 | 70 | 0.0 | 0.0 | 0.00 | 0.00 | 0.00 | 91 | 1009.9 |
| 20260505051555 | 49 | 257 | 0.0 | 0.0 | 0.00 | 0.00 | 0.00 | 91 | 1009.9 |
| 20260505051036 | 49 | 72 | 0.0 | 0.0 | 0.00 | 0.00 | 0.00 | 91 | 1009.9 |
| 20260505050534 | 49 | 114 | 0.0 | 0.0 | 0.00 | 0.00 | 0.00 | 90 | 1010.1 |
| 20260505041533 | 50 | 48 | 0.0 | 0.0 | 0.00 | 0.00 | 0.00 | 88 | 1010.3 |
| 20260505041032 | 50 | 41 | 0.0 | 0.0 | 0.00 | 0.00 | 0.00 | 88 | 1010.3 |
| 20260505040536 | 50 | 298 | 0.0 | 0.0 | 0.00 | 0.00 | 0.00 | 87 | 1010.3 |
| 20260505040032 | 50 | 298 | 0.0 | 0.0 | 0.00 | 0.00 | 0.00 | 87 | 1010.3 |
| 20260505035530 | 50 | 39 | 0.0 | 0.0 | 0.00 | 0.00 | 0.00 | 87 | 1010.3 |
| 20260505035030 | 50 | 77 | 0.0 | 0.0 | 0.00 | 0.00 | 0.00 | 87 | 1010.3 |
| 20260505034531 | 51 | 23 | 0.0 | 0.0 | 0.00 | 0.00 | 0.00 | 87 | 1010.2 |
| 20260505034029 | 51 | 66 | 0.0 | 0.0 | 0.00 | 0.00 | 0.00 | 87 | 1010.2 |
| 20260505033530 | 51 | 51 | 0.0 | 0.0 | 0.00 | 0.00 | 0.00 | 86 | 1010.1 |
| 20260505033030 | 51 | 56 | 0.0 | 0.0 | 0.00 | 0.00 | 0.00 | 86 | 1010.1 |
| 20260505032528 | 51 | 49 | 0.0 | 0.0 | 0.00 | 0.00 | 0.00 | 86 | 1010.2 |
| 20260505032027 | 51 | 32 | 0.0 | 0.0 | 0.00 | 0.00 | 0.00 | 86 | 1010.2 |
| 20260505031527 | 51 | 128 | 0.0 | 0.0 | 0.00 | 0.00 | 0.00 | 86 | 1010.3 |
| 20260505031027 | 51 | 89 | 0.0 | 0.0 | 0.00 | 0.00 | 0.00 | 86 | 1010.3 |
| 20260505030527 | 51 | 71 | 0.0 | 0.0 | 0.00 | 0.00 | 0.00 | 86 | 1010.3 |
| 20260505030029 | 51 | 71 | 0.0 | 0.0 | 0.00 | 0.00 | 0.00 | 86 | 1010.4 |
| 20260505025526 | 51 | 248 | 0.0 | 0.0 | 0.00 | 0.00 | 0.00 | 85 | 1010.4 |
| 20260505025026 | 51 | 140 | 0.0 | 0.0 | 0.00 | 0.00 | 0.00 | 85 | 1010.4 |
| 20260505024525 | 51 | 143 | 0.0 | 0.0 | 0.00 | 0.00 | 0.00 | 85 | 1010.4 |
| 20260505024025 | 51 | 49 | 0.0 | 0.0 | 0.00 | 0.00 | 0.00 | 85 | 1010.4 |
| 20260505023524 | 51 | 128 | 0.0 | 0.0 | 0.00 | 0.00 | 0.00 | 85 | 1010.4 |
| 20260505023024 | 51 | 15 | 0.0 | 0.0 | 0.00 | 0.00 | 0.00 | 84 | 1010.4 |
| 20260505022524 | 51 | 62 | 0.0 | 0.0 | 0.00 | 0.00 | 0.00 | 84 | 1010.4 |
| 20260505022023 | 51 | 72 | 0.0 | 0.0 | 0.00 | 0.00 | 0.00 | 84 | 1010.5 |
| 20260505021523 | 51 | 98 | 0.0 | 0.0 | 0.00 | 0.00 | 0.00 | 83 | 1010.5 |
| 20260505021023 | 51 | 53 | 0.0 | 0.0 | 0.00 | 0.00 | 0.00 | 83 | 1010.5 |
| 20260505020521 | 52 | 53 | 0.0 | 0.0 | 0.00 | 0.00 | 0.00 | 82 | 1010.5 |
| 20260505020022 | 52 | 80 | 0.0 | 0.0 | 0.00 | 0.00 | 0.00 | 82 | 1010.4 |
| 20260505015520 | 52 | 121 | 0.0 | 0.0 | 0.00 | 0.00 | 0.00 | 82 | 1010.5 |
| 20260505015020 | 52 | 297 | 0.0 | 0.0 | 0.00 | 0.00 | 0.00 | 81 | 1010.4 |
| 20260505014519 | 52 | 133 | 0.0 | 0.0 | 0.00 | 0.00 | 0.00 | 81 | 1010.5 |
| 20260505014021 | 52 | 68 | 0.0 | 0.0 | 0.00 | 0.00 | 0.00 | 81 | 1010.5 |
| 20260505013519 | 52 | 13 | 0.0 | 0.0 | 0.00 | 0.00 | 0.00 | 81 | 1010.4 |
| 20260505013017 | 52 | 103 | 0.0 | 0.0 | 0.00 | 0.00 | 0.00 | 80 | 1010.3 |
| 20260505012516 | 53 | 339 | 0.0 | 0.0 | 0.00 | 0.00 | 0.00 | 80 | 1010.3 |
| 20260505012016 | 53 | 38 | 0.0 | 0.0 | 0.00 | 0.00 | 0.00 | 80 | 1010.2 |
| 20260505011517 | 53 | 270 | 0.0 | 0.0 | 0.00 | 0.00 | 0.00 | 79 | 1010.0 |
| 20260505011014 | 53 | 223 | 0.0 | 0.0 | 0.00 | 0.00 | 0.00 | 79 | 1010.0 |
| 20260505010512 | 53 | 76 | 0.0 | 0.0 | 0.00 | 0.00 | 0.00 | 78 | 1009.9 |
| 20260505010015 | 53 | 19 | 0.0 | 0.0 | 0.00 | 0.00 | 0.00 | 78 | 1009.8 |
| 20260505005515 | 54 | 33 | 0.0 | 0.0 | 0.00 | 0.00 | 0.00 | 77 | 1009.6 |
| 20260505005013 | 54 | 89 | 0.0 | 0.0 | 0.00 | 0.00 | 0.00 | 77 | 1009.6 |
| 20260505004511 | 54 | 76 | 0.0 | 0.0 | 0.00 | 0.00 | 0.00 | 76 | 1009.5 |
| 20260505004011 | 54 | 223 | 0.0 | 1.0 | 0.00 | 0.00 | 0.00 | 76 | 1009.5 |
| 20260505003511 | 54 | 41 | 0.0 | 1.0 | 0.00 | 0.00 | 0.00 | 75 | 1009.4 |
| 20260505003018 | 55 | 11 | 0.0 | 0.0 | 0.00 | 0.00 | 0.00 | 74 | 1009.3 |
| 20260505002507 | 55 | 44 | 0.0 | 0.0 | 0.00 | 0.00 | 0.00 | 73 | 1009.2 |
| 20260505002006 | 55 | 76 | 0.0 | 0.0 | 0.00 | 0.00 | 0.00 | 72 | 1009.1 |
| 20260505001506 | 55 | 351 | 0.0 | 0.0 | 0.00 | 0.00 | 0.00 | 71 | 1009.0 |
| 20260505001004 | 56 | 77 | 0.0 | 0.0 | 0.00 | 0.00 | 0.00 | 70 | 1009.0 |
| 20260505000503 | 56 | 236 | 0.0 | 0.0 | 0.00 | 0.00 | 0.00 | 69 | 1008.8 |
| 20260505000005 | 56 | 46 | 0.0 | 0.0 | 0.00 | 0.00 | 0.00 | 69 | 1008.8 |
| 20260504235502 | 56 | 77 | 0.0 | 1.0 | 0.00 | 0.00 | 0.00 | 68 | 1008.6 |
| 20260504235101 | 56 | 243 | 0.0 | 1.0 | 0.00 | 0.00 | 0.00 | 67 | 1008.6 |
| 20260504234600 | 57 | 104 | 0.0 | 0.0 | 0.00 | 0.00 | 0.00 | 66 | 1008.5 |
| 20260504234058 | 57 | 103 | 0.0 | 0.0 | 0.00 | 0.00 | 0.00 | 64 | 1008.5 |
| 20260504233557 | 57 | 215 | 0.0 | 1.0 | 0.00 | 0.00 | 0.00 | 63 | 1008.5 |
| 20260504233108 | 57 | 115 | 0.0 | 1.0 | 0.00 | 0.00 | 0.00 | 62 | 1008.5 |
| 20260504232556 | 58 | 67 | 0.0 | 0.0 | 0.00 | 0.00 | 0.00 | 62 | 1008.4 |
| 20260504232054 | 58 | 278 | 0.0 | 0.0 | 0.00 | 0.00 | 0.00 | 61 | 1008.3 |
| 20260504231555 | 58 | 82 | 0.0 | 1.0 | 0.00 | 0.00 | 0.00 | 60 | 1008.2 |
| 20260504231054 | 59 | 114 | 0.0 | 1.0 | 0.00 | 0.00 | 0.00 | 59 | 1008.2 |
| 20260504230552 | 59 | 294 | 0.0 | 0.0 | 0.00 | 0.00 | 0.00 | 59 | 1008.1 |
| 20260504225550 | 59 | 90 | 0.0 | 0.0 | 0.00 | 0.00 | 0.00 | 59 | 1008.0 |
| 20260504225049 | 60 | 77 | 0.0 | 0.0 | 0.00 | 0.00 | 0.00 | 58 | 1008.0 |
| 20260504224551 | 60 | 221 | 0.0 | 0.0 | 0.00 | 0.00 | 0.00 | 56 | 1007.8 |
| 20260504224047 | 60 | 25 | 0.0 | 1.0 | 0.00 | 0.00 | 0.00 | 55 | 1007.8 |
| 20260504223546 | 61 | 134 | 0.0 | 1.0 | 0.00 | 0.00 | 0.00 | 53 | 1007.8 |
| 20260504223045 | 62 | 281 | 0.0 | 0.0 | 0.00 | 0.00 | 0.00 | 53 | 1007.7 |
| 20260504222543 | 63 | 30 | 0.0 | 0.0 | 0.00 | 0.00 | 0.00 | 52 | 1007.6 |
| 20260504222042 | 63 | 91 | 0.0 | 0.0 | 0.00 | 0.00 | 0.00 | 51 | 1007.6 |
| 20260504221540 | 63 | 97 | 0.0 | 0.0 | 0.00 | 0.00 | 0.00 | 50 | 1007.6 |
| 20260504221040 | 64 | 30 | 0.0 | 0.0 | 0.00 | 0.00 | 0.00 | 50 | 1007.5 |
| 20260504220539 | 64 | 208 | 0.0 | 0.0 | 0.00 | 0.00 | 0.00 | 49 | 1007.6 |
| 20260504215543 | 64 | 101 | 0.0 | 0.0 | 0.00 | 0.00 | 0.00 | 49 | 1007.6 |
| 20260504215037 | 65 | 49 | 0.0 | 0.0 | 0.00 | 0.00 | 0.00 | 49 | 1007.6 |
| 20260504214536 | 65 | 85 | 0.0 | 0.0 | 0.00 | 0.00 | 0.00 | 49 | 1007.5 |
| 20260504214036 | 65 | 93 | 0.0 | 0.0 | 0.00 | 0.00 | 0.00 | 48 | 1007.4 |
| 20260504213536 | 65 | 84 | 0.0 | 0.0 | 0.00 | 0.00 | 0.00 | 49 | 1007.5 |
| 20260504213034 | 65 | 61 | 0.0 | 0.0 | 0.00 | 0.00 | 0.00 | 48 | 1007.3 |
| 20260504212533 | 66 | 205 | 0.0 | 0.0 | 0.00 | 0.00 | 0.00 | 47 | 1007.4 |
| 20260504212036 | 66 | 30 | 0.0 | 0.0 | 0.00 | 0.00 | 0.00 | 48 | 1007.4 |
| 20260504211537 | 66 | 258 | 0.0 | 0.0 | 0.00 | 0.00 | 0.00 | 48 | 1007.4 |
| 20260504211032 | 66 | 79 | 0.0 | 0.0 | 0.00 | 0.00 | 0.00 | 48 | 1007.4 |
| 20260504210534 | 66 | 219 | 0.0 | 5.0 | 0.00 | 0.00 | 0.00 | 50 | 1007.3 |
| 20260504205531 | 66 | 105 | 0.0 | 5.0 | 0.00 | 0.00 | 0.00 | 48 | 1007.3 |
| 20260504205030 | 67 | 110 | 0.0 | 4.0 | 0.00 | 0.00 | 0.00 | 46 | 1007.4 |
| 20260504204533 | 68 | 207 | 0.0 | 1.0 | 0.00 | 0.00 | 0.00 | 46 | 1007.2 |
| 20260504204032 | 68 | 6 | 0.0 | 7.0 | 0.00 | 0.00 | 0.00 | 45 | 1007.2 |
| 20260504203529 | 67 | 136 | 0.0 | 7.0 | 0.00 | 0.00 | 0.00 | 45 | 1007.2 |
| 20260504203048 | 67 | 139 | 0.0 | 0.0 | 0.00 | 0.00 | 0.00 | 46 | 1007.2 |
| 20260504202528 | 67 | 96 | 0.0 | 0.0 | 0.00 | 0.00 | 0.00 | 45 | 1007.1 |
| 20260504202027 | 67 | 110 | 0.0 | 0.0 | 0.00 | 0.00 | 0.00 | 44 | 1007.1 |
| 20260504201528 | 67 | 65 | 0.0 | 2.0 | 0.00 | 0.00 | 0.00 | 43 | 1007.1 |
| 20260504201027 | 67 | 330 | 0.0 | 2.0 | 0.00 | 0.00 | 0.00 | 43 | 1007.1 |
| 20260504200526 | 67 | 109 | 0.0 | 2.0 | 0.00 | 0.00 | 0.00 | 44 | 1007.2 |
| 20260504195526 | 68 | 75 | 0.0 | 0.0 | 0.00 | 0.00 | 0.00 | 45 | 1007.1 |
| 20260504195027 | 68 | 164 | 0.0 | 0.0 | 0.00 | 0.00 | 0.00 | 43 | 1007.2 |
| 20260504194525 | 68 | 203 | 0.0 | 0.0 | 0.00 | 0.00 | 0.00 | 44 | 1007.2 |
| 20260504194024 | 68 | 155 | 0.0 | 2.0 | 0.00 | 0.00 | 0.00 | 41 | 1007.2 |
| 20260504193524 | 69 | 99 | 0.0 | 2.0 | 0.00 | 0.00 | 0.00 | 38 | 1007.2 |
| 20260504193023 | 69 | 6 | 0.0 | 0.0 | 0.00 | 0.00 | 0.00 | 36 | 1007.2 |
| 20260504192522 | 69 | 95 | 0.0 | 1.0 | 0.00 | 0.00 | 0.00 | 37 | 1007.2 |
| 20260504192023 | 69 | 282 | 0.0 | 1.0 | 0.00 | 0.00 | 0.00 | 36 | 1007.3 |
| 20260504191525 | 69 | 96 | 0.0 | 0.0 | 0.00 | 0.00 | 0.00 | 37 | 1007.2 |
| 20260504191021 | 69 | 39 | 0.0 | 5.0 | 0.00 | 0.00 | 0.00 | 36 | 1007.4 |
| 20260504190521 | 69 | 207 | 1.0 | 8.0 | 0.00 | 0.00 | 0.00 | 38 | 1007.3 |
| 20260504185524 | 69 | 116 | 0.0 | 3.0 | 0.00 | 0.00 | 0.00 | 35 | 1007.3 |
| 20260504185021 | 69 | 52 | 0.0 | 0.0 | 0.00 | 0.00 | 0.00 | 37 | 1007.3 |
| 20260504184521 | 69 | 315 | 0.0 | 0.0 | 0.00 | 0.00 | 0.00 | 36 | 1007.4 |
| 20260504184021 | 70 | 136 | 0.0 | 3.0 | 0.00 | 0.00 | 0.00 | 36 | 1007.4 |
| 20260504183520 | 70 | 79 | 0.0 | 3.0 | 0.00 | 0.00 | 0.00 | 35 | 1007.3 |
| 20260504183023 | 70 | 7 | 0.0 | 13.0 | 0.00 | 0.00 | 0.00 | 34 | 1007.4 |
| 20260504182526 | 70 | 91 | 1.0 | 13.0 | 0.00 | 0.00 | 0.00 | 34 | 1007.6 |
| 20260504182022 | 70 | 96 | 0.0 | 7.0 | 0.00 | 0.00 | 0.00 | 33 | 1007.6 |
| 20260504181517 | 70 | 64 | 1.0 | 7.0 | 0.00 | 0.00 | 0.00 | 32 | 1007.7 |
| 20260504181017 | 70 | 30 | 0.0 | 12.0 | 0.00 | 0.00 | 0.00 | 32 | 1007.7 |
| 20260504180520 | 70 | 296 | 0.0 | 10.0 | 0.00 | 0.00 | 0.00 | 31 | 1007.7 |
| 20260504175514 | 70 | 48 | 0.0 | 10.0 | 0.00 | 0.00 | 0.00 | 31 | 1007.7 |
| 20260504175014 | 70 | 241 | 1.0 | 6.0 | 0.00 | 0.00 | 0.00 | 31 | 1007.6 |
| 20260504174514 | 70 | 195 | 0.0 | 3.0 | 0.00 | 0.00 | 0.00 | 31 | 1007.7 |
| 20260504174014 | 70 | 243 | 0.0 | 1.0 | 0.00 | 0.00 | 0.00 | 31 | 1007.7 |
| 20260504173512 | 70 | 229 | 0.0 | 0.0 | 0.00 | 0.00 | 0.00 | 31 | 1007.6 |
| 20260504173013 | 70 | 32 | 0.0 | 0.0 | 0.00 | 0.00 | 0.00 | 30 | 1007.7 |
| 20260504172512 | 70 | 129 | 0.0 | 10.0 | 0.00 | 0.00 | 0.00 | 30 | 1007.8 |
| 20260504172012 | 69 | 191 | 1.0 | 10.0 | 0.00 | 0.00 | 0.00 | 30 | 1007.8 |
| 20260504171512 | 70 | 214 | 0.0 | 2.0 | 0.00 | 0.00 | 0.00 | 31 | 1007.7 |
| 20260504171014 | 70 | 269 | 0.0 | 14.0 | 0.00 | 0.00 | 0.00 | 31 | 1007.7 |
| 20260504170510 | 70 | 220 | 0.0 | 0.0 | 0.00 | 0.00 | 0.00 | 32 | 1007.9 |
| 20260504151049 | 65 | 228 | 0.0 | 2.0 | 0.00 | 0.00 | 0.00 | 35 | 1009.0 |
| 20260504150548 | 65 | 200 | 0.0 | 0.0 | 0.00 | 0.00 | 0.00 | 39 | 1008.9 |
| 20260504141039 | 63 | 237 | 0.0 | 0.0 | 0.00 | 0.00 | 0.00 | 41 | 1009.7 |
| 20260504140540 | 62 | 164 | 0.0 | 0.0 | 0.00 | 0.00 | 0.00 | 40 | 1009.7 |